Theta_e
320 319 319 319 319 318 316 314 314 314 314 314 315 315 315 315 315 320 323 325 337 347 356 357 358 352 349 349 351 351 356 356 358 355 357 348 351 349 343 344 345 345 347 338 339
320 320 319 319 319 318 317 316 315 314 314 315 315 315 316 316 325 324 322 320 337 350 356 354 353 350 351 353 353 354 354 357 355 354 355 349 353 347 348 350 342 344 341 337 340
319 319 318 318 318 318 317 316 316 315 314 315 315 315 316 317 329 326 320 320 338 350 355 354 348 347 353 351 349 353 357 354 355 353 352 352 352 346 348 349 341 342 341 337 338
318 318 318 317 318 318 318 316 316 315 314 315 315 316 316 328 342 335 318 332 342 353 355 348 350 352 351 353 352 357 354 354 354 353 352 355 351 347 351 346 339 337 337 339 340
317 318 318 318 318 319 319 318 316 315 314 315 315 317 321 328 332 328 326 342 351 353 352 350 352 351 351 350 349 353 354 352 353 353 352 353 351 348 351 347 340 339 339 341 342
319 319 318 318 319 319 319 319 316 314 314 315 317 317 326 328 336 339 350 351 352 353 350 349 353 351 349 350 347 346 349 352 352 353 353 355 353 352 352 346 342 342 345 346 345
319 319 320 319 318 319 319 319 316 314 314 316 319 322 324 323 342 340 348 351 352 353 353 350 350 352 352 348 346 346 349 352 354 353 353 353 358 358 351 346 346 345 346 347 346
319 319 320 320 319 318 318 318 315 314 316 319 319 327 322 330 343 344 347 348 351 351 350 349 349 351 349 347 348 349 351 353 348 352 351 355 363 357 350 349 346 347 346 345 346
319 318 319 319 316 317 317 315 314 317 317 319 327 327 322 338 342 341 344 347 349 350 350 347 344 346 347 348 348 345 348 351 352 350 351 355 363 357 350 347 346 345 346 347 346
319 319 319 316 315 316 315 319 318 319 322 327 328 325 321 324 337 340 342 342 345 344 340 337 342 347 347 346 346 344 346 350 352 355 352 354 359 357 351 347 346 346 347 348 348
319 319 318 315 315 316 321 324 329 330 325 321 322 324 324 329 338 337 336 338 334 337 334 344 347 348 345 344 342 341 342 346 351 350 353 354 357 358 353 348 347 347 348 348 347
319 319 316 314 315 318 321 331 328 326 326 325 324 324 327 329 334 336 332 334 332 335 343 345 346 343 342 340 339 336 341 347 350 350 351 353 354 356 354 351 348 348 348 348 348
320 319 315 315 316 319 322 323 324 325 330 328 328 325 326 327 333 336 333 337 337 339 341 344 345 342 343 342 337 336 341 346 350 352 349 352 359 358 355 353 348 347 347 348 348
321 319 318 316 319 321 325 325 323 324 329 328 325 326 326 327 329 333 330 337 338 337 337 340 340 341 340 338 333 338 341 343 351 352 356 351 357 360 357 357 354 349 348 348 349
321 320 317 319 323 327 326 323 323 324 327 325 326 327 327 327 329 334 335 337 337 334 337 339 338 336 335 335 334 344 341 346 350 351 351 354 351 359 355 358 356 353 350 347 347
323 322 317 318 318 323 323 323 324 334 326 325 327 327 327 327 329 332 335 333 333 334 335 334 335 334 336 334 336 346 348 349 349 348 352 351 351 354 357 355 354 353 351 349 349
324 324 318 319 329 323 323 327 337 334 329 326 326 327 327 327 331 333 332 331 331 332 333 332 333 335 333 337 344 346 345 341 341 341 344 348 349 351 349 350 353 352 352 350 349
325 325 321 320 322 322 327 336 338 332 329 327 326 327 326 327 331 332 332 333 333 332 331 334 339 336 333 334 339 344 342 338 338 336 339 350 351 354 346 348 350 351 351 351 349
323 324 327 327 326 324 332 336 337 334 328 326 327 327 327 327 326 329 332 332 332 334 334 335 340 331 330 331 335 341 339 335 336 339 340 342 349 350 347 348 347 347 349 350 350
330 333 330 324 325 328 337 333 335 334 330 327 327 327 326 327 327 328 329 329 330 332 334 333 333 330 328 329 330 332 335 334 335 338 337 341 348 353 357 356 353 352 351 351 351
331 339 331 325 326 337 337 337 335 333 334 335 333 330 329 328 328 329 329 329 329 330 331 333 331 332 330 331 332 333 333 333 336 335 336 336 353 351 358 357 355 354 352 350 349
337 340 331 328 339 337 336 335 326 334 334 337 338 337 335 332 328 328 331 334 331 329 329 330 331 333 332 331 330 331 332 332 334 338 334 338 359 348 353 354 354 355 354 355 356
342 339 334 332 337 337 336 334 333 334 334 336 338 338 337 336 336 333 335 333 330 329 332 331 333 335 334 334 334 335 335 332 332 333 336 338 360 352 354 357 357 363 366 364 362
339 342 339 336 337 337 337 337 335 330 331 333 334 336 339 338 337 337 335 333 332 333 329 329 334 335 337 340 338 336 338 337 336 336 338 339 358 358 354 355 363 363 358 360 360
336 340 337 340 338 335 336 336 336 336 333 334 335 334 336 339 337 336 336 335 333 330 334 335 336 337 337 336 336 337 340 340 342 340 338 343 351 354 354 357 354 353 355 353 354
339 341 339 339 337 337 332 338 336 334 333 333 333 333 335 336 335 337 336 338 337 335 334 333 337 339 338 335 338 338 341 343 341 341 345 343 350 350 356 354 349 351 352 348 348
332 333 337 333 337 338 338 337 335 333 332 332 332 332 333 334 333 333 331 332 332 334 335 334 334 335 337 336 336 338 342 344 345 345 346 346 348 355 356 347 346 347 348 347 348
Wind_Speed
16 15 14 14 12 11 10 9 8 6 5 4 3 3 3 2 3 4 9 3 10 22 17 16 9 7 5 2 3 2 3 8 5 3 7 10 9 8 10 12 3 2 13 27 27
16 16 15 14 12 11 10 9 8 7 5 4 4 3 3 3 5 12 6 10 14 26 19 15 9 9 3 4 3 3 3 5 2 2 8 8 6 12 9 7 11 18 23 28 27
16 16 14 13 12 11 10 9 8 6 5 3 4 4 3 2 6 4 12 15 22 24 14 8 9 8 5 4 3 2 5 5 5 5 11 9 8 8 8 9 14 21 24 21 23
16 15 14 12 12 11 10 8 8 7 5 3 3 2 3 2 3 4 15 19 25 17 12 9 7 5 5 4 5 5 5 5 6 9 12 8 8 8 6 8 16 20 24 25 21
15 14 13 12 11 10 9 8 7 6 5 3 2 1 1 7 6 6 16 23 21 15 11 6 2 2 2 5 4 6 7 7 8 10 11 10 10 8 6 8 18 22 22 20 20
15 14 12 12 11 9 9 8 6 5 4 2 1 3 4 6 3 14 21 23 16 15 9 4 5 6 2 2 2 4 3 6 6 11 11 9 11 7 7 16 20 21 19 16 16
16 13 12 11 10 9 8 7 5 3 2 2 4 2 6 6 5 17 21 19 14 9 8 4 5 9 5 2 5 3 8 5 4 7 7 10 9 7 13 18 20 20 17 17 17
16 13 11 9 9 8 6 3 2 2 2 3 5 3 2 2 9 18 18 14 13 6 3 2 3 6 5 2 4 7 9 5 1 6 4 9 9 11 13 18 21 20 18 15 14
17 13 10 7 6 4 2 4 4 3 6 9 1 6 8 8 11 18 17 13 14 9 5 4 7 4 4 6 7 4 8 6 7 4 6 8 11 13 13 16 19 18 17 16 14
17 11 8 5 2 4 8 11 11 9 5 2 3 6 6 7 13 15 15 12 11 10 8 8 5 6 5 6 9 8 3 2 2 5 4 7 10 14 13 14 17 17 15 16 16
16 10 5 1 4 13 16 6 5 5 7 5 5 3 9 12 15 14 17 14 8 8 10 5 7 5 9 8 9 8 7 3 5 6 4 5 9 14 15 13 15 15 15 15 16
14 7 2 4 9 14 6 4 6 5 5 5 3 1 5 10 8 14 16 11 11 12 5 7 11 8 6 5 8 10 6 4 6 8 1 4 8 11 16 14 14 15 15 15 15
13 3 3 8 11 7 5 3 1 5 5 6 4 6 8 11 11 17 18 7 10 10 11 12 5 4 11 12 10 8 5 5 1 9 4 6 7 11 14 13 13 15 14 15 15
11 1 5 11 5 5 3 1 4 3 6 7 9 6 8 7 8 17 17 8 8 10 7 10 8 9 12 10 9 6 3 3 9 9 1 6 3 12 15 17 16 16 17 16 15
8 4 10 9 1 4 2 6 3 5 4 6 9 7 7 7 17 12 15 7 10 10 8 4 4 6 7 11 7 6 2 8 8 6 4 6 5 8 13 15 20 18 18 18 16
5 9 12 9 4 4 3 2 4 6 4 7 8 11 14 8 7 12 13 10 5 11 11 14 6 6 6 4 3 4 8 9 6 3 3 5 6 9 7 13 17 19 19 17 16
2 11 14 8 2 1 3 4 6 2 3 9 13 13 12 9 10 15 15 15 11 11 13 12 15 11 8 5 7 8 13 3 2 2 6 4 4 9 3 2 3 17 18 18 15
11 9 5 6 3 2 6 6 1 2 3 4 9 11 9 9 12 11 14 13 15 12 3 10 9 12 12 16 9 11 10 8 1 5 5 4 4 6 2 3 5 4 11 13 15
5 3 2 3 7 6 7 2 4 4 4 9 13 12 7 9 3 10 12 11 13 15 8 6 5 4 4 6 9 7 8 7 7 3 5 4 9 13 8 4 3 5 7 8 9
1 3 3 3 4 7 6 7 4 3 1 9 11 9 12 13 10 9 11 10 10 12 14 3 4 3 3 7 6 9 2 6 7 3 4 7 4 8 7 7 6 6 7 5 6
4 4 2 2 3 6 4 6 5 4 1 4 0 6 1 8 8 7 9 6 7 10 9 7 7 7 7 8 11 6 9 5 4 5 3 5 9 11 9 9 8 8 7 8 9
6 2 1 2 4 1 6 3 3 3 2 3 3 3 1 4 7 4 4 3 2 7 10 12 5 3 5 3 3 7 7 6 9 10 3 7 8 5 10 9 7 7 5 4 3
5 2 1 3 3 7 5 9 11 10 8 6 6 7 1 4 3 3 2 4 4 8 6 10 7 7 12 10 6 6 3 8 8 6 5 10 8 6 10 9 6 8 8 5 4
4 2 3 2 1 2 3 5 7 6 10 8 5 1 2 3 2 7 8 4 3 1 4 2 2 10 7 8 4 2 2 6 10 7 11 2 15 11 10 10 10 8 8 7 6
3 3 3 2 5 4 1 1 6 4 3 5 4 9 7 3 6 5 5 10 7 4 3 5 4 2 4 4 3 2 4 4 8 11 8 7 14 14 13 12 10 10 8 10 11
5 4 1 1 1 2 2 2 2 5 6 4 3 4 7 6 6 3 3 2 5 3 3 3 3 3 3 3 3 5 1 3 3 2 1 5 15 13 12 13 12 11 9 9 13
6 2 4 2 2 5 2 2 3 1 3 5 3 4 1 7 8 7 6 4 3 3 1 2 2 3 2 3 4 10 3 3 2 2 1 10 14 16 15 13 11 10 9 9 11
Wind_Direction
321 318 314 312 313 314 319 316 321 323 305 297 298 306 311 306 262 182 223 235 173 157 149 148 154 155 177 241 241 226 197 101 77 33 119 126 120 87 101 129 110 229 145 149 151
319 313 311 310 309 310 311 314 315 318 294 288 291 292 304 302 233 235 235 195 172 156 159 163 164 166 198 198 177 255 72 74 61 134 139 134 114 128 132 116 115 115 128 146 155
321 314 309 307 307 306 304 308 309 309 298 276 288 303 301 311 243 110 194 171 166 157 165 176 157 174 189 146 190 153 108 123 75 110 135 129 121 136 138 110 144 143 145 150 155
322 316 309 306 303 304 300 296 298 297 279 257 278 299 290 227 133 62 162 163 160 164 173 161 181 206 148 154 141 124 132 151 126 136 135 130 131 131 81 96 139 148 153 160 172
326 317 310 306 301 299 299 293 282 283 282 246 258 231 193 213 67 129 155 157 156 174 190 185 224 287 112 105 104 107 141 135 147 145 133 135 122 132 94 155 140 150 158 167 175
332 318 308 301 298 295 292 285 269 268 265 249 194 162 247 205 57 153 153 159 172 184 199 208 31 352 41 90 12 89 107 105 149 138 136 134 128 148 121 146 148 160 167 176 184
336 324 308 296 294 291 285 273 258 240 219 242 161 148 243 67 132 157 165 172 174 198 214 219 316 303 336 176 121 91 158 132 69 132 125 136 151 97 143 154 161 166 172 180 193
338 328 319 303 292 284 266 246 235 200 171 155 148 224 101 73 147 160 168 177 184 204 203 279 285 282 310 359 196 142 151 151 143 151 143 227 137 139 160 163 171 174 179 192 190
343 330 327 308 292 263 199 119 122 131 125 127 156 247 137 122 159 167 170 176 181 191 235 278 280 304 207 277 173 92 138 88 148 219 163 222 130 154 171 170 172 180 180 188 209
346 336 328 308 251 126 122 116 112 99 107 169 253 228 160 166 147 166 185 181 187 206 230 234 233 263 215 271 19 346 352 101 145 156 202 159 122 156 177 176 178 182 186 187 202
347 340 345 12 139 134 122 123 188 164 212 336 135 63 128 122 138 175 171 173 203 214 227 221 265 266 357 344 321 308 305 265 124 140 158 168 149 167 176 186 177 183 188 189 197
347 343 29 136 148 154 147 265 29 14 174 211 237 211 137 166 139 162 175 194 204 220 193 223 247 11 323 300 305 314 281 183 108 143 215 155 184 176 181 187 187 189 187 192 190
347 350 132 150 154 169 238 274 295 326 248 144 177 186 166 195 166 168 190 200 218 219 225 263 310 278 291 299 311 303 279 136 108 154 132 179 170 184 192 192 192 198 203 200 199
347 120 148 140 133 172 221 227 271 266 216 128 173 157 168 211 160 162 194 205 206 247 247 271 287 282 288 295 324 296 13 212 151 191 159 231 92 184 186 197 200 201 205 211 215
338 197 168 166 71 217 99 320 184 203 175 144 136 135 162 207 130 179 192 205 239 209 238 219 277 289 287 1 326 11 103 165 168 201 237 161 252 101 186 203 203 207 202 208 209
302 197 171 193 222 231 311 214 223 228 98 143 140 170 176 185 142 147 182 233 275 243 234 268 284 286 326 352 273 154 135 135 160 226 187 95 281 129 164 221 206 207 211 210 204
345 182 174 175 75 228 277 214 229 315 162 151 164 172 177 163 150 164 180 195 207 212 229 236 246 235 263 245 162 235 219 189 205 185 54 119 229 54 20 135 249 197 205 210 212
75 141 203 197 246 294 223 237 36 83 87 136 169 164 174 160 151 170 174 192 220 239 168 203 214 209 203 232 258 214 276 307 290 19 46 130 53 87 76 142 151 141 184 203 216
94 116 191 293 243 223 254 251 44 33 103 154 167 173 173 189 233 184 206 210 199 210 244 178 224 141 227 220 252 141 233 14 285 176 256 69 105 87 95 124 191 205 163 200 214
225 205 105 96 129 216 247 73 74 29 170 194 154 191 174 187 203 204 178 192 204 201 247 91 208 181 134 184 203 288 18 218 221 221 289 113 102 96 95 98 117 142 173 167 145
227 224 91 209 220 227 39 66 64 64 263 279 159 181 218 165 228 184 164 140 207 187 226 247 258 128 171 220 159 173 208 236 324 299 308 258 94 102 110 118 117 116 137 157 167
288 243 69 268 224 255 66 20 233 82 146 100 39 47 253 188 194 195 140 39 170 182 201 218 306 207 146 124 283 280 305 252 232 174 259 311 97 142 123 123 132 122 122 126 136
323 353 186 258 154 112 119 99 52 57 47 46 55 45 127 142 171 170 143 47 153 186 192 180 225 168 161 164 176 227 184 266 291 295 191 277 110 142 132 131 119 122 112 93 58
288 236 128 97 359 349 106 69 105 54 62 52 30 16 132 115 159 148 134 93 131 183 317 228 272 323 25 39 22 188 218 240 262 217 145 74 125 159 147 131 128 111 104 97 90
345 55 3 67 67 48 91 43 89 81 67 30 68 32 1 74 131 103 131 136 114 134 230 273 101 342 40 30 252 285 316 224 281 359 329 106 139 157 149 136 112 113 110 104 87
340 333 312 342 196 238 149 75 47 99 358 57 36 40 23 54 22 59 319 37 60 121 198 218 117 239 132 39 266 227 174 277 300 304 129 129 119 129 123 130 127 119 111 91 84
5 307 289 156 213 238 77 87 49 281 94 60 4 304 24 17 338 324 307 304 337 319 62 307 201 296 251 349 281 226 75 298 306 225 161 178 148 152 146 135 127 117 108 99 93